User: anonymous   Login
Location: Unspecified
(0.0000°N, 0.0000°E)
Time: 16:38:05
(UTC+00:00)
Language:

USA 271 - Orbit

View from above orbital plane
View from above orbital plane
View from above satellite
View from above satellite

Ground track
Ground track

The orbit data is extracted from the following two-line orbital elements,

1 41745U 16052B   17083.97928801 0.00000000  00000-0  00000-0 0    01
2 41745   0.0720 104.8441 0001000 340.4148  19.5852  1.00560861    06
Epoch (UTC): 24 March 2017 23:30:10
Eccentricity: 0.0001000
inclination: 0.0720°
perigee height: 35701 km
apogee height: 35709 km
right ascension of ascending node: 104.8441°
argument of perigee: 340.4148°
revolutions per day: 1.00560861
mean anomaly at epoch: 19.5852°
orbit number at epoch: 0

The dashed part of the orbit path shows where the satellite is in the earth's shadow,  

DLR